Torna al catalogo

YAOGAN 7 DEB

AttivoMilitarePO
NORAD 38265·DEBRIS·🇨🇳 China

Lanciato Dec 9, 2009 da Jiuquan Satellite Launch Center

Loading…

Prossimi Passaggi (prossime 24 ore)

TLE

AggiornatoSource: Space-Track

Epoca: Sep 11, 2026, 15:55 UTC

1 38265U 09069B   26254.66353835  .00001443  00000-0  42010-3 0  9998
2 38265  97.8219 148.9767 0208732  14.5426 346.1643 14.33661300864572

Traccia YAOGAN 7 DEB in tempo reale con AllMySat

Download on the App Store